Cumberland, RI (02864)

6:13 PM EDT on August 04, 2015 (GMT -0400)
Lippitt Estates | | Change Station
CLOSE
Current Station
Personal Weather Station
Location: Cumberland, RI
Elevation: 354 ft
Nearby Weather Stations

Elev 354 ft 41.96 °N, 71.42 °W | Updated 1 second ago

Partly Cloudy
Partly Cloudy
75.2 °F
Feels Like 77 °F
N
0.0
Wind Variable Wind from West
Gusts 0.0 mph

Today
High -- | Low -- °F
--% Chance of Precip.
Yesterday
High -- | Low -- °F
Precip. -- in
5:42 AM 8:00 PM
Waning Gibbous, 74% visible
Pressure 29.85 in
Visibility 10.0 miles
Clouds Few 5000 ft
Scattered Clouds 6000 ft
Mostly Cloudy 9500 ft
Heat Index 77 °F
Dew Point 64 °F
Humidity 67%
Rainfall 0.33 in
Snow Depth Not available.
UV 1.0 out of 12
Pollen 7.30 out of 12
Air Quality Not available.
Flu Activity Not available.
METAR KSFZ 042155Z AUTO 32007KT 10SM VCTS FEW050 SCT060 BKN095 24/17 A2985 RMK AO1 LTG DSNT NW TSB13E33B38

More Conditions Fewer Conditions

Pressure 29.85 in
Visibility 10.0 miles
Clouds Few 5000 ft
Scattered Clouds 6000 ft
Mostly Cloudy 9500 ft
Heat Index 77 °F
Dew Point 64 °F
Humidity 67%
Rainfall 0.33 in
Snow Depth Not available.
UV 1.0 out of 12
Pollen 7.30 out of 12
Air Quality Not available.
Flu Activity Not available.
METAR KSFZ 042155Z AUTO 32007KT 10SM VCTS FEW050 SCT060 BKN095 24/17 A2985 RMK AO1 LTG DSNT NW TSB13E33B38

More Conditions Fewer Conditions

10-Day Weather Forecast

×

Almanac

Astronomy

Aug. 04, 2015 Rise Set
Actual Time
Civil Twilight
Nautical Twilight
Astronomical Twilight
Moon
Length of Visible Light
Length of Day
Tomorrow will be .
, % of the Moon is Illuminated

Today's Extremes

State Highs State Lows

Community

WunderPhotos

Upload Photos

1,844,002 photos uploaded!

WunderBlogs® & News

Nearby

Air Quality

  Air Quality AQ Index Pollutant
Not available.

Snow Depth

Station Depth Elevation

Earthquake Activity

City Distance Mag. Time & Date
Minimum magnitude displayed is 2.5.

Coastal Water Temperatures

Place Temperature

Stations

Nearby Weather Stations

Station Location Temp. Windchill Dew Point Humidity Wind Precip. Elev Updated Type